sat.trackr.live / text

‹ back to catalog

STARLINK-4145

NORAD 53137 · 2022-083F

PAYLOAD ACTIVE UNKNOWN

§ Identity

Operator
Country
US
Launch date
2022-07-17
Launch site
AFETR
Launch vehicle
Mass (kg)
RCS (m²)

Purposes: comms

External: N2YO · Heavens-Above · Gunter

§ Orbital elements

Epoch: 2026-09-19T22:49:14.201184Z

Period
93.79 min
Inclination
53.1614°
Eccentricity
0.0001343
Mean motion
15.35390695 rev/d
Perigee alt
458.8 km
Apogee alt
460.7 km
Semi-major
6,837.9 km
B*
6.2208e-5
RAAN
8.7483°
Arg perigee
73.2810°
Mean anomaly
286.8340°
Rev number
23,072

§ Raw data

STARLINK-41451 53137U 22083F   26262.95085881  .00001789  00000+0  62208-4 0  99922 53137  53.1614   8.7483 0001343  73.2810 286.8340 15.35390695230724

JSON: /api/v1/satellites/53137 · /tle

For live sub-satellite position, see the globe view (requires WebGL).

§ Visibility from observer

Set your observer location to see the next 7 days of passes ≥ 10°. The values pass through the URL so the page stays shareable.

No JS? Fill the form by hand. The geolocation button needs JavaScript.